User: anonymous
Location: Unspecified
(0.0000°N, 0.0000°E)
Time: 15:16:26
(UTC+00:00)
Language:

Aussat K1 - Orbit

View from above orbital plane
View from above orbital plane
View from above satellite
View from above satellite

Ground track
Ground track

The orbit data is extracted from the following two-line orbital elements,

1 15993U 85076B   14206.13837760  .00000029  00000-0  00000+0 0  8136
2 15993 014.8282 018.8110 0001886 150.6881 019.8492 00.99765755 76239
Epoch (UTC): 25 July 2014 03:19:15
Eccentricity: 0.0001886
inclination: 14.8282°
perigee height: 35920 km
apogee height: 35936 km
right ascension of ascending node: 18.8110°
argument of perigee: 150.6881°
revolutions per day: 0.99765755
mean anomaly at epoch: 19.8492°
orbit number at epoch: 7623

The dashed part of the orbit path shows where the satellite is in the earth's shadow,  

DLR